UMMENDORF Weather Reports


Display with metric or nautical units.
time (UTC)temp
F
wind
direction
speed
MPH
gust
MPH
rain 1hr
in
rain 24hr
in
rain mn
in
humidity
%
barometer
mb
20260506090211 61 221 6.0 0.0 0.00 0.00 0.00 48 1006.8
20260506083211 59 287 5.0 0.0 0.00 0.00 0.00 50 1006.7
20260506080212 56 295 0.0 0.0 0.00 0.00 0.00 53 1007.0
20260506073211 55 308 3.0 0.0 0.00 0.00 0.00 57 1007.1
20260506070212 55 254 6.0 0.0 0.00 0.00 0.00 61 1007.2
20260506060210 50 138 3.0 0.0 0.00 0.00 0.00 72 1007.1
20260506050211 47 114 0.0 0.0 0.00 0.00 0.00 69 1007.2
20260506043211 47 121 3.0 0.0 0.00 0.00 0.00 67 1007.6
20260506040211 47 145 0.0 0.0 0.00 0.00 0.00 67 1007.7
20260506033211 48 145 0.0 0.0 0.00 0.00 0.00 67 1008.1
20260506030212 49 172 2.0 0.0 0.00 0.00 0.00 67 1008.4
20260506023211 49 262 0.0 0.0 0.00 0.00 0.00 67 1008.4
20260506020212 49 213 0.0 0.0 0.00 0.00 0.00 66 1008.7
20260506013211 49 219 4.0 0.0 0.00 0.00 0.00 66 1008.6
20260506010213 50 197 0.0 0.0 0.00 0.00 0.00 66 1009.3
20260506003209 50 197 1.0 0.0 0.00 0.00 0.00 66 1009.0
20260506000211 49 217 4.0 0.0 0.00 0.00 0.00 65 1009.2
20260505233209 49 215 0.0 0.0 0.00 0.00 0.00 65 1009.3
20260505230209 50 236 0.0 0.0 0.00 0.00 0.00 64 1009.6
20260505223210 50 240 1.0 0.0 0.00 0.00 0.00 62 1009.6
20260505220209 51 240 4.0 0.0 0.00 0.00 0.00 61 1009.5
20260505213211 53 246 1.0 0.0 0.00 0.00 0.02 61 1009.6
20260505210215 54 167 9.0 0.0 0.00 0.00 0.02 59 1009.4
20260505203209 54 201 7.0 0.0 0.00 0.00 0.02 59 1009.4
20260505200210 55 198 13.0 0.0 0.00 0.00 0.02 59 1009.6
20260505193209 56 205 8.0 0.0 0.00 0.00 0.02 58 1009.6
20260505190215 59 222 19.0 0.0 0.00 0.00 0.00 54 1008.9
20260505183212 61 231 12.0 0.0 0.00 0.00 0.00 50 1008.2
20260505180211 62 272 8.0 0.0 0.00 0.00 0.00 49 1007.8
20260505173210 63 251 9.0 0.0 0.00 0.00 0.00 46 1007.5
20260505170210 64 309 9.0 0.0 0.00 0.00 0.00 46 1007.3
20260505163211 65 225 3.0 0.0 0.00 0.00 0.00 43 1007.0
20260505153210 64 230 8.0 0.0 0.00 0.00 0.00 44 1007.6
20260505150216 64 293 5.0 0.0 0.00 0.00 0.00 43 1007.5
20260505140210 63 303 11.0 0.0 0.00 0.00 0.00 47 1007.5
20260505130210 62 39 5.0 0.0 0.00 0.00 0.00 49 1007.7
20260505123210 61 273 4.0 0.0 0.00 0.00 0.00 46 1008.4
20260505120210 61 276 6.0 0.0 0.00 0.00 0.00 52 1008.5
20260505113210 61 217 10.0 0.0 0.00 0.00 0.00 49 1008.5
20260505110211 61 236 10.0 0.0 0.00 0.00 0.00 50 1008.3
20260505100212 62 211 10.0 0.0 0.00 0.00 0.00 50 1008.2
20260505093212 63 242 8.0 0.0 0.00 0.00 0.00 48 1008.4